History for KNYNEWYO585

Bryant Park, New York, NY — Current Conditions
Daily Summary for January 21, 2018
  Current: High: Low: Average:
Temperature: 51.4°F 52.5°F 45.7°F 49.1°F
Dew Point: 35.4°F 35.4°F 26.1°F 29.3°F
Humidity: 54% 54% 38% 47%
Wind Speed: 7.4mph 22.8mph - 1.9mph
Wind Gust: 14.8mph 29.5mph - -
Wind: ESE - - SE
Pressure: 30.20in 30.23in 30.07in -
Precipitation: 0.00in      
Solar Radiation: 0 watts/m^2      
UV Index: 0.0      
Statistics for the rest of the month
    High: Low: Average:
Temperature:   63.0°F 7.7°F 29.3°F
Dew Point:   61.0°F -19.1°F 11.9°F
Humidity:   97.0% 20.0% 51.5%
Wind Speed:   40.9mph from the SSW - 4.7mph
Wind Gust:   52.3mph from the SSW - -
Wind:   - - SE
Pressure:   30.75in 29.28in -
Precipitation:   0.04in    
KNYNEWYO585 Weather Graph
Tabular Data for January 21, 2018
Time Temp. Windchill Dew Point Pressure Wind Gust Humidity Rainfall Solar Radiation
00:00 47.7°F - 27.9°F 30.08in 0.0mph 46% 0.00in 0.00 watts/m^2
00:05 47.5°F - 27.7°F 30.08in 0.0mph 46% 0.00in 0.00 watts/m^2
00:10 47.3°F - 28.0°F 30.08in 0.0mph 47% 0.00in 0.00 watts/m^2
00:16 47.3°F - 28.0°F 30.09in 0.0mph 47% 0.00in 0.00 watts/m^2
00:21 47.1°F - 28.4°F 30.08in 14.8mph 48% 0.00in 0.00 watts/m^2
00:26 46.9°F - 28.8°F 30.08in 7.4mph 49% 0.00in 0.00 watts/m^2
00:31 46.8°F - 28.0°F 30.08in 7.4mph 48% 0.00in 0.00 watts/m^2
00:36 46.6°F - 28.0°F 30.08in 0.0mph 48% 0.00in 0.00 watts/m^2
00:41 46.4°F - 27.9°F 30.08in 0.0mph 48% 0.00in 0.00 watts/m^2
00:51 46.0°F - 27.5°F 30.08in 0.0mph 48% 0.00in 0.00 watts/m^2
00:56 46.0°F - 28.0°F 30.08in 0.0mph 49% 0.00in 0.00 watts/m^2
01:01 46.0°F - 27.5°F 30.08in 0.0mph 48% 0.00in 0.00 watts/m^2
01:06 46.2°F - 27.7°F 30.08in 0.0mph 48% 0.00in 0.00 watts/m^2
01:11 46.2°F - 27.7°F 30.08in 7.4mph 48% 0.00in 0.00 watts/m^2
01:16 46.4°F - 27.9°F 30.08in 0.0mph 48% 0.00in 0.00 watts/m^2
01:32 46.8°F - 27.7°F 30.09in 0.0mph 47% 0.00in 0.00 watts/m^2
01:42 46.9°F - 27.9°F 30.09in 0.0mph 47% 0.00in 0.00 watts/m^2
01:47 46.9°F - 27.9°F 30.09in 7.4mph 47% 0.00in 0.00 watts/m^2
01:52 46.9°F - 27.9°F 30.09in 0.0mph 47% 0.00in 0.00 watts/m^2
01:57 46.9°F - 27.9°F 30.10in 7.4mph 47% 0.00in 0.00 watts/m^2
02:02 46.9°F - 27.9°F 30.11in 0.0mph 47% 0.00in 0.00 watts/m^2
02:07 46.9°F - 28.2°F 30.11in 0.0mph 48% 0.00in 0.00 watts/m^2
02:13 46.8°F - 28.0°F 30.11in 0.0mph 48% 0.00in 0.00 watts/m^2
02:18 46.8°F - 28.0°F 30.10in 0.0mph 48% 0.00in 0.00 watts/m^2
02:23 46.6°F - 28.4°F 30.11in 0.0mph 49% 0.00in 0.00 watts/m^2
02:28 46.6°F - 28.4°F 30.11in 0.0mph 49% 0.00in 0.00 watts/m^2
02:33 46.6°F - 28.4°F 30.11in 0.0mph 49% 0.00in 0.00 watts/m^2
02:43 46.6°F - 27.5°F 30.11in 7.4mph 47% 0.00in 0.00 watts/m^2
02:53 46.6°F - 27.0°F 30.10in 0.0mph 46% 0.00in 0.00 watts/m^2
03:03 46.8°F - 27.7°F 30.11in 0.0mph 47% 0.00in 0.00 watts/m^2
03:08 46.8°F - 27.1°F 30.11in 7.4mph 46% 0.00in 0.00 watts/m^2
03:13 46.8°F - 27.1°F 30.11in 7.4mph 46% 0.00in 0.00 watts/m^2
03:24 46.6°F - 27.5°F 30.11in 0.0mph 47% 0.00in 0.00 watts/m^2
03:44 46.2°F - 27.1°F 30.11in 0.0mph 47% 0.00in 0.00 watts/m^2
03:49 46.0°F - 27.0°F 30.11in 0.0mph 47% 0.00in 0.00 watts/m^2
03:54 46.0°F - 27.0°F 30.11in 0.0mph 47% 0.00in 0.00 watts/m^2
03:59 46.0°F - 27.0°F 30.11in 0.0mph 47% 0.00in 0.00 watts/m^2
04:05 46.0°F - 27.0°F 30.11in 0.0mph 47% 0.00in 0.00 watts/m^2
04:10 46.0°F - 27.0°F 30.11in 0.0mph 47% 0.00in 0.00 watts/m^2
04:15 45.9°F - 26.8°F 30.11in 0.0mph 47% 0.00in 0.00 watts/m^2
04:20 45.9°F - 26.2°F 30.11in 0.0mph 46% 0.00in 0.00 watts/m^2
04:26 45.9°F - 26.2°F 30.12in 0.0mph 46% 0.00in 0.00 watts/m^2
04:31 46.4°F - 27.3°F 30.11in 0.0mph 47% 0.00in 0.00 watts/m^2
04:36 46.2°F - 27.7°F 30.12in 0.0mph 48% 0.00in 0.00 watts/m^2
04:42 46.2°F - 27.7°F 30.12in 0.0mph 48% 0.00in 0.00 watts/m^2
04:47 46.2°F - 27.7°F 30.12in 0.0mph 48% 0.00in 0.00 watts/m^2
04:52 46.2°F - 27.7°F 30.12in 0.0mph 48% 0.00in 0.00 watts/m^2
04:57 46.0°F 44.3°F 27.5°F 30.12in 7.4mph 48% 0.00in 0.00 watts/m^2
05:02 46.0°F - 27.5°F 30.13in 7.4mph 48% 0.00in 0.00 watts/m^2
05:07 46.0°F - 27.5°F 30.12in 0.0mph 48% 0.00in 0.00 watts/m^2
05:12 46.0°F - 27.5°F 30.14in 0.0mph 48% 0.00in 0.00 watts/m^2
05:17 45.9°F - 27.3°F 30.14in 0.0mph 48% 0.00in 0.00 watts/m^2
05:22 45.9°F - 27.3°F 30.14in 0.0mph 48% 0.00in 0.00 watts/m^2
05:28 45.9°F - 27.3°F 30.14in 0.0mph 48% 0.00in 0.00 watts/m^2
05:33 45.9°F - 27.3°F 30.14in 0.0mph 48% 0.00in 0.00 watts/m^2
05:38 45.9°F - 27.3°F 30.14in 0.0mph 48% 0.00in 0.00 watts/m^2
05:43 45.9°F 41.7°F 27.3°F 30.14in 14.8mph 48% 0.00in 0.00 watts/m^2
05:48 45.9°F - 27.3°F 30.15in 7.4mph 48% 0.00in 0.00 watts/m^2
05:53 45.9°F - 27.3°F 30.15in 0.0mph 48% 0.00in 0.00 watts/m^2
05:58 45.9°F - 27.3°F 30.15in 0.0mph 48% 0.00in 0.00 watts/m^2
06:03 46.0°F - 27.5°F 30.15in 0.0mph 48% 0.00in 0.00 watts/m^2
06:08 46.0°F - 27.5°F 30.15in 0.0mph 48% 0.00in 0.00 watts/m^2
06:13 46.0°F - 27.5°F 30.16in 0.0mph 48% 0.00in 0.00 watts/m^2
06:18 45.9°F - 27.3°F 30.16in 0.0mph 48% 0.00in 0.00 watts/m^2
06:23 45.9°F - 27.3°F 30.16in 7.4mph 48% 0.00in 0.00 watts/m^2
06:28 45.9°F - 27.9°F 30.16in 0.0mph 49% 0.00in 0.00 watts/m^2
06:33 45.7°F - 27.7°F 30.16in 0.0mph 49% 0.00in 0.00 watts/m^2
06:38 45.7°F - 27.7°F 30.16in 7.4mph 49% 0.00in 0.00 watts/m^2
06:44 45.7°F - 27.7°F 30.16in 0.0mph 49% 0.00in 0.00 watts/m^2
06:49 45.7°F - 27.7°F 30.17in 0.0mph 49% 0.00in 0.00 watts/m^2
06:54 45.9°F - 27.9°F 30.17in 0.0mph 49% 0.00in 0.00 watts/m^2
06:59 45.9°F - 27.9°F 30.17in 0.0mph 49% 0.00in 0.00 watts/m^2
07:04 45.9°F - 27.9°F 30.17in 0.0mph 49% 0.00in 0.00 watts/m^2
07:09 45.9°F - 27.9°F 30.18in 0.0mph 49% 0.00in 0.55 watts/m^2
07:14 45.9°F - 27.9°F 30.17in 0.0mph 49% 0.00in 1.33 watts/m^2
07:19 45.9°F - 27.9°F 30.18in 0.0mph 49% 0.00in 2.26 watts/m^2
07:24 45.7°F - 28.0°F 30.18in 0.0mph 50% 0.00in 4.20 watts/m^2
07:29 45.7°F - 28.0°F 30.18in 0.0mph 50% 0.00in 5.84 watts/m^2
07:34 45.7°F 43.9°F 28.0°F 30.18in 7.4mph 50% 0.00in 8.39 watts/m^2
07:39 45.7°F - 28.0°F 30.18in 0.0mph 50% 0.00in 10.97 watts/m^2
07:44 45.7°F - 28.0°F 30.18in 0.0mph 50% 0.00in 13.56 watts/m^2
07:49 45.7°F - 28.0°F 30.19in 7.4mph 50% 0.00in 14.44 watts/m^2
07:55 45.7°F - 27.7°F 30.19in 0.0mph 49% 0.00in 16.36 watts/m^2
08:00 45.7°F 42.6°F 27.7°F 30.18in 7.4mph 49% 0.00in 18.55 watts/m^2
08:05 45.7°F - 27.7°F 30.19in 0.0mph 49% 0.00in 21.00 watts/m^2
08:10 45.7°F - 27.7°F 30.19in 0.0mph 49% 0.00in 23.47 watts/m^2
08:15 45.7°F - 27.7°F 30.19in 7.4mph 49% 0.00in 24.82 watts/m^2
08:20 45.7°F - 27.7°F 30.19in 0.0mph 49% 0.00in 26.39 watts/m^2
08:25 45.7°F - 27.7°F 30.19in 7.4mph 49% 0.00in 28.48 watts/m^2
08:30 45.7°F 42.9°F 27.7°F 30.19in 7.4mph 49% 0.00in 30.25 watts/m^2
08:35 45.9°F 43.2°F 27.9°F 30.19in 7.4mph 49% 0.00in 32.42 watts/m^2
08:40 45.9°F - 27.9°F 30.19in 7.4mph 49% 0.00in 35.13 watts/m^2
08:45 45.9°F - 27.9°F 30.19in 0.0mph 49% 0.00in 37.45 watts/m^2
08:50 45.9°F - 27.9°F 30.20in 0.0mph 49% 0.00in 40.10 watts/m^2
08:55 46.0°F - 28.4°F 30.19in 7.4mph 50% 0.00in 41.89 watts/m^2
09:00 46.2°F - 28.6°F 30.19in 0.0mph 50% 0.00in 43.29 watts/m^2
09:05 46.2°F - 28.6°F 30.20in 0.0mph 50% 0.00in 48.32 watts/m^2
09:11 46.8°F - 29.1°F 30.20in 0.0mph 50% 0.00in 46.04 watts/m^2
09:16 46.8°F - 29.1°F 30.21in 0.0mph 50% 0.00in 47.21 watts/m^2
09:21 46.8°F - 29.1°F 30.20in 7.4mph 50% 0.00in 49.49 watts/m^2
09:26 46.8°F - 29.1°F 30.20in 0.0mph 50% 0.00in 51.45 watts/m^2
09:31 46.8°F - 29.1°F 30.21in 7.4mph 50% 0.00in 52.60 watts/m^2
09:36 46.9°F - 29.3°F 30.21in 0.0mph 50% 0.00in 54.37 watts/m^2
09:41 46.9°F - 28.8°F 30.22in 7.4mph 49% 0.00in 58.83 watts/m^2
09:46 47.1°F - 28.9°F 30.21in 0.0mph 49% 0.00in 69.44 watts/m^2
09:51 47.1°F - 28.9°F 30.22in 7.4mph 49% 0.00in 73.98 watts/m^2
09:56 47.1°F - 28.4°F 30.21in 0.0mph 48% 0.00in 72.57 watts/m^2
10:01 47.3°F - 28.6°F 30.22in 0.0mph 48% 0.00in 79.84 watts/m^2
10:06 47.5°F - 28.2°F 30.21in 14.8mph 47% 0.00in 79.74 watts/m^2
10:11 47.7°F - 27.9°F 30.22in 7.4mph 46% 0.00in 82.06 watts/m^2
10:16 47.7°F - 27.9°F 30.23in 0.0mph 46% 0.00in 81.63 watts/m^2
10:21 47.7°F - 28.9°F 30.22in 14.8mph 48% 0.00in 83.97 watts/m^2
10:27 47.8°F - 29.1°F 30.22in 14.8mph 48% 0.00in 70.48 watts/m^2
10:32 47.8°F - 28.6°F 30.22in 7.4mph 47% 0.00in 69.63 watts/m^2
10:37 48.0°F - 28.2°F 30.22in 14.8mph 46% 0.00in 70.82 watts/m^2
10:42 48.0°F - 28.2°F 30.22in 0.0mph 46% 0.00in 70.82 watts/m^2
10:47 48.0°F - 28.2°F 30.22in 0.0mph 46% 0.00in 75.00 watts/m^2
10:52 48.2°F - 27.9°F 30.22in 0.0mph 45% 0.00in 79.11 watts/m^2
10:57 48.2°F - 27.9°F 30.22in 0.0mph 45% 0.00in 80.03 watts/m^2
11:02 48.2°F - 28.4°F 30.22in 0.0mph 46% 0.00in 79.08 watts/m^2
11:07 48.2°F - 28.4°F 30.22in 0.0mph 46% 0.00in 76.47 watts/m^2
11:12 48.4°F - 28.0°F 30.22in 7.4mph 45% 0.00in 75.62 watts/m^2
11:17 48.4°F - 28.0°F 30.22in 7.4mph 45% 0.00in 75.85 watts/m^2
11:23 48.6°F - 28.2°F 30.21in 0.0mph 45% 0.00in 75.58 watts/m^2
11:28 48.6°F - 28.2°F 30.21in 7.4mph 45% 0.00in 72.72 watts/m^2
11:33 48.6°F - 28.2°F 30.21in 0.0mph 45% 0.00in 71.10 watts/m^2
11:38 48.6°F - 28.2°F 30.21in 0.0mph 45% 0.00in 64.96 watts/m^2
11:43 48.6°F - 28.2°F 30.21in 7.4mph 45% 0.00in 61.15 watts/m^2
11:48 48.7°F - 28.4°F 30.20in 7.4mph 45% 0.00in 64.45 watts/m^2
11:53 48.7°F - 28.4°F 30.20in 7.4mph 45% 0.00in 69.40 watts/m^2
11:59 48.7°F - 28.4°F 30.20in 7.4mph 45% 0.00in 70.08 watts/m^2
12:04 48.9°F - 28.6°F 30.20in 0.0mph 45% 0.00in 66.41 watts/m^2
12:09 48.9°F - 28.0°F 30.19in 0.0mph 44% 0.00in 67.18 watts/m^2
12:14 49.1°F - 28.8°F 30.19in 7.4mph 45% 0.00in 68.61 watts/m^2
12:19 48.9°F - 28.0°F 30.20in 0.0mph 44% 0.00in 67.12 watts/m^2
12:24 48.9°F - 28.6°F 30.19in 7.4mph 45% 0.00in 70.12 watts/m^2
12:29 48.9°F - 28.6°F 30.19in 7.4mph 45% 0.00in 72.23 watts/m^2
12:34 48.9°F - 28.0°F 30.18in 0.0mph 44% 0.00in 74.87 watts/m^2
12:39 49.1°F - 28.2°F 30.18in 0.0mph 44% 0.00in 75.94 watts/m^2
12:44 49.1°F - 27.7°F 30.18in 14.8mph 43% 0.00in 75.36 watts/m^2
12:49 49.1°F - 28.2°F 30.19in 7.4mph 44% 0.00in 77.77 watts/m^2
12:54 49.3°F - 27.7°F 30.18in 7.4mph 43% 0.00in 79.11 watts/m^2
12:59 49.3°F - 27.7°F 30.18in 0.0mph 43% 0.00in 236.86 watts/m^2
13:04 49.5°F - 27.3°F 30.18in 7.4mph 42% 0.00in 90.24 watts/m^2
13:09 49.5°F - 27.9°F 30.19in 0.0mph 43% 0.00in 81.25 watts/m^2
13:15 49.5°F - 27.9°F 30.18in 0.0mph 43% 0.00in 79.43 watts/m^2
13:20 49.5°F - 27.9°F 30.18in 0.0mph 43% 0.00in 84.43 watts/m^2
13:25 49.3°F - 27.7°F 30.17in 22.1mph 43% 0.00in 79.53 watts/m^2
13:30 49.5°F - 27.9°F 30.17in 7.4mph 43% 0.00in 75.64 watts/m^2
13:35 49.3°F - 28.4°F 30.17in 0.0mph 44% 0.00in 75.11 watts/m^2
13:40 49.3°F - 27.7°F 30.16in 7.4mph 43% 0.00in 74.68 watts/m^2
13:45 49.5°F - 27.3°F 30.16in 0.0mph 42% 0.00in 76.37 watts/m^2
13:50 49.6°F - 27.5°F 30.16in 0.0mph 42% 0.00in 87.73 watts/m^2
13:55 49.8°F - 27.7°F 30.16in 22.1mph 42% 0.00in 233.51 watts/m^2
14:00 49.8°F - 27.7°F 30.16in 0.0mph 42% 0.00in 268.73 watts/m^2
14:05 50.5°F - 27.1°F 30.16in 14.8mph 40% 0.00in 297.58 watts/m^2
14:10 51.3°F - 26.6°F 30.16in 0.0mph 38% 0.00in 314.44 watts/m^2
14:15 51.6°F - 27.5°F 30.16in 0.0mph 39% 0.00in 82.29 watts/m^2
14:20 52.0°F - 28.4°F 30.16in 0.0mph 40% 0.00in 79.29 watts/m^2
14:25 52.2°F - 28.6°F 30.16in 14.8mph 40% 0.00in 73.19 watts/m^2
14:31 52.5°F - 28.9°F 30.16in 14.8mph 40% 0.00in 68.42 watts/m^2
14:36 52.3°F - 28.8°F 30.15in 7.4mph 40% 0.00in 66.31 watts/m^2
14:41 52.0°F - 29.1°F 30.17in 0.0mph 41% 0.00in 69.61 watts/m^2
14:46 51.8°F - 28.2°F 30.16in 0.0mph 40% 0.00in 69.67 watts/m^2
14:51 51.6°F - 28.0°F 30.16in 0.0mph 40% 0.00in 55.91 watts/m^2
14:56 51.4°F - 28.6°F 30.17in 7.4mph 41% 0.00in 62.62 watts/m^2
15:01 51.1°F - 28.2°F 30.17in 7.4mph 41% 0.00in 59.21 watts/m^2
15:11 50.9°F - 28.0°F 30.16in 0.0mph 41% 0.00in 52.82 watts/m^2
15:16 50.9°F - 28.0°F 30.16in 7.4mph 41% 0.00in 49.07 watts/m^2
15:21 50.9°F - 28.0°F 30.17in 0.0mph 41% 0.00in 58.44 watts/m^2
15:26 51.1°F - 28.2°F 30.17in 0.0mph 41% 0.00in 51.16 watts/m^2
15:31 51.3°F - 27.9°F 30.17in 0.0mph 40% 0.00in 52.41 watts/m^2
15:36 51.4°F - 27.9°F 30.18in 7.4mph 40% 0.00in 58.02 watts/m^2
15:41 51.4°F - 28.6°F 30.16in 0.0mph 41% 0.00in 41.89 watts/m^2
15:47 51.4°F - 28.6°F 30.16in 0.0mph 41% 0.00in 42.84 watts/m^2
15:52 51.4°F - 29.1°F 30.17in 7.4mph 42% 0.00in 40.86 watts/m^2
15:57 51.4°F - 29.1°F 30.17in 7.4mph 42% 0.00in 33.21 watts/m^2
16:02 51.4°F - 28.6°F 30.17in 0.0mph 41% 0.00in 33.11 watts/m^2
16:07 51.4°F - 27.9°F 30.18in 0.0mph 40% 0.00in 28.91 watts/m^2
16:12 51.4°F - 27.9°F 30.18in 0.0mph 40% 0.00in 27.44 watts/m^2
16:17 51.4°F - 28.6°F 30.18in 7.4mph 41% 0.00in 23.62 watts/m^2
16:22 51.4°F - 28.6°F 30.18in 0.0mph 41% 0.00in 22.86 watts/m^2
16:27 51.6°F - 28.0°F 30.18in 0.0mph 40% 0.00in 20.53 watts/m^2
16:37 51.6°F - 28.8°F 30.18in 7.4mph 41% 0.00in 13.04 watts/m^2
16:47 51.4°F - 28.6°F 30.19in 0.0mph 41% 0.00in 5.92 watts/m^2
16:52 51.6°F - 28.8°F 30.18in 14.8mph 41% 0.00in 3.03 watts/m^2
16:57 51.6°F - 28.8°F 30.18in 14.8mph 41% 0.00in 0.90 watts/m^2
17:03 51.6°F - 28.8°F 30.19in 7.4mph 41% 0.00in 0.15 watts/m^2
17:08 51.6°F - 28.8°F 30.19in 14.8mph 41% 0.00in 0.00 watts/m^2
17:13 51.8°F - 28.9°F 30.19in 14.8mph 41% 0.00in 0.00 watts/m^2
17:18 51.8°F - 28.9°F 30.20in 0.0mph 41% 0.00in 0.00 watts/m^2
17:23 51.8°F - 29.5°F 30.19in 14.8mph 42% 0.00in 0.00 watts/m^2
17:28 51.8°F - 28.9°F 30.21in 14.8mph 41% 0.00in 0.00 watts/m^2
17:33 51.8°F - 29.5°F 30.20in 7.4mph 42% 0.00in 0.00 watts/m^2
17:38 51.6°F - 29.3°F 30.20in 7.4mph 42% 0.00in 0.00 watts/m^2
17:43 51.6°F - 30.9°F 30.19in 7.4mph 45% 0.00in 0.00 watts/m^2
17:48 51.6°F - 30.4°F 30.20in 0.0mph 44% 0.00in 0.00 watts/m^2
17:53 51.6°F - 30.9°F 30.21in 0.0mph 45% 0.00in 0.00 watts/m^2
17:58 51.6°F - 30.9°F 30.20in 14.8mph 45% 0.00in 0.00 watts/m^2
18:03 51.6°F - 32.0°F 30.20in 7.4mph 47% 0.00in 0.00 watts/m^2
18:04 51.6°F - 32.0°F 30.20in 7.4mph 47% 0.00in 0.00 watts/m^2
18:09 51.6°F - 32.5°F 30.20in 7.4mph 48% 0.00in 0.00 watts/m^2
18:19 51.6°F - 33.1°F 30.20in 7.4mph 49% 0.00in 0.00 watts/m^2
18:24 51.6°F - 33.1°F 30.20in 0.0mph 49% 0.00in 0.00 watts/m^2
18:35 51.6°F - 33.6°F 30.20in 0.0mph 50% 0.00in 0.00 watts/m^2
18:40 51.6°F - 33.1°F 30.19in 0.0mph 49% 0.00in 0.00 watts/m^2
18:45 51.6°F - 33.1°F 30.19in 0.0mph 49% 0.00in 0.00 watts/m^2
18:50 51.6°F - 33.1°F 30.20in 7.4mph 49% 0.00in 0.00 watts/m^2
18:55 51.8°F - 33.3°F 30.19in 0.0mph 49% 0.00in 0.00 watts/m^2
19:00 51.8°F - 33.3°F 30.20in 7.4mph 49% 0.00in 0.00 watts/m^2
19:05 52.0°F - 33.4°F 30.20in 14.8mph 49% 0.00in 0.00 watts/m^2
19:10 52.2°F - 34.2°F 30.20in 7.4mph 50% 0.00in 0.00 watts/m^2
19:15 52.0°F - 34.0°F 30.21in 7.4mph 50% 0.00in 0.00 watts/m^2
19:20 52.0°F - 34.0°F 30.20in 14.8mph 50% 0.00in 0.00 watts/m^2
19:25 51.8°F - 34.3°F 30.21in 0.0mph 51% 0.00in 0.00 watts/m^2
19:30 51.6°F - 34.2°F 30.20in 7.4mph 51% 0.00in 0.00 watts/m^2
19:35 51.4°F - 34.0°F 30.20in 22.1mph 51% 0.00in 0.00 watts/m^2
19:40 51.3°F - 33.8°F 30.21in 14.8mph 51% 0.00in 0.00 watts/m^2
19:45 51.3°F - 33.8°F 30.21in 7.4mph 51% 0.00in 0.00 watts/m^2
19:51 51.3°F - 34.3°F 30.21in 0.0mph 52% 0.00in 0.00 watts/m^2
19:56 51.3°F - 34.3°F 30.21in 7.4mph 52% 0.00in 0.00 watts/m^2
20:01 51.3°F - 34.3°F 30.21in 0.0mph 52% 0.00in 0.00 watts/m^2
20:06 51.1°F - 34.2°F 30.20in 7.4mph 52% 0.00in 0.00 watts/m^2
20:11 51.1°F - 34.2°F 30.22in 0.0mph 52% 0.00in 0.00 watts/m^2
20:16 51.1°F - 34.2°F 30.20in 0.0mph 52% 0.00in 0.00 watts/m^2
20:21 51.1°F - 34.2°F 30.21in 7.4mph 52% 0.00in 0.00 watts/m^2
20:26 51.1°F - 34.2°F 30.22in 14.8mph 52% 0.00in 0.00 watts/m^2
20:31 51.1°F - 34.2°F 30.20in 7.4mph 52% 0.00in 0.00 watts/m^2
20:36 51.3°F - 34.3°F 30.21in 0.0mph 52% 0.00in 0.00 watts/m^2
20:41 51.3°F - 34.7°F 30.21in 0.0mph 53% 0.00in 0.00 watts/m^2
20:46 51.3°F - 34.3°F 30.20in 7.4mph 52% 0.00in 0.00 watts/m^2
20:51 51.3°F - 34.3°F 30.21in 7.4mph 52% 0.00in 0.00 watts/m^2
20:56 51.3°F - 34.3°F 30.22in 0.0mph 52% 0.00in 0.00 watts/m^2
21:01 51.4°F - 34.3°F 30.21in 7.4mph 52% 0.00in 0.00 watts/m^2
21:07 51.4°F - 34.3°F 30.21in 7.4mph 52% 0.00in 0.00 watts/m^2
21:12 51.4°F - 34.3°F 30.21in 7.4mph 52% 0.00in 0.00 watts/m^2
21:17 51.4°F - 34.3°F 30.21in 0.0mph 52% 0.00in 0.00 watts/m^2
21:22 51.4°F - 34.3°F 30.22in 0.0mph 52% 0.00in 0.00 watts/m^2
21:27 51.4°F - 34.3°F 30.21in 7.4mph 52% 0.00in 0.00 watts/m^2
21:32 51.4°F - 34.3°F 30.21in 7.4mph 52% 0.00in 0.00 watts/m^2
21:37 51.4°F - 34.3°F 30.22in 7.4mph 52% 0.00in 0.00 watts/m^2
21:42 51.4°F - 34.3°F 30.21in 0.0mph 52% 0.00in 0.00 watts/m^2
21:47 51.3°F - 34.3°F 30.20in 0.0mph 52% 0.00in 0.00 watts/m^2
21:52 51.3°F - 34.3°F 30.21in 0.0mph 52% 0.00in 0.00 watts/m^2
21:57 51.3°F - 34.3°F 30.21in 14.8mph 52% 0.00in 0.00 watts/m^2
22:07 51.3°F - 34.7°F 30.21in 0.0mph 53% 0.00in 0.00 watts/m^2
22:17 51.3°F - 34.7°F 30.20in 0.0mph 53% 0.00in 0.00 watts/m^2
22:23 51.3°F - 34.3°F 30.20in 0.0mph 52% 0.00in 0.00 watts/m^2
22:33 51.4°F - 34.9°F 30.20in 7.4mph 53% 0.00in 0.00 watts/m^2
22:38 51.4°F - 34.9°F 30.20in 7.4mph 53% 0.00in 0.00 watts/m^2
22:48 51.4°F - 35.4°F 30.19in 0.0mph 54% 0.00in 0.00 watts/m^2
22:53 51.4°F - 35.4°F 30.20in 0.0mph 54% 0.00in 0.00 watts/m^2
Comma Delimited File
Powered by Weather Underground, Inc.